Eastsound, WA

7:18 AM PDT on August 27, 2016 (GMT -0700)
Orcas Island

Weather History for KORS - November, 2013

Change the Weather History Date:

Thursday, November 21, 2013

  Actual Average (KBLI) Record (KBLI)
Temperature  
Mean Temperature 34 °F 42 °F  
Max Temperature 39 °F 48 °F 58 °F (1968)
Min Temperature 30 °F 36 °F 19 °F (1985)
Degree Days  
Heating Degree Days 30 23  
Month to date heating degree days 436  
Cooling Degree Days 0 0  
Month to date cooling degree days 0  
Year to date cooling degree days 42  
Moisture  
Dew Point 34 °F    
Average Humidity 100    
Maximum Humidity 100    
Minimum Humidity 100    
Precipitation  
Precipitation 0.00 in 0.19 in 2.73 in (1980)
Month to date precipitation 4.13  
Year to date precipitation 29.94  
Sea Level Pressure  
Sea Level Pressure 30.63 in    
Wind  
Wind Speed 2 mph (NE)    
Max Wind Speed 7 mph    
Max Gust Speed -    
Visibility 10 miles    
Events      
T = Trace of Precipitation, MM = Missing Value Source: NWS Daily Summary

Daily Weather History Graph

Daily Weather History Graph

Search for Another Location

Airport or City:

Trip Planner

Search our weather history database for the weather conditions in past years. The results will help you decide how hot, cold, wet, or windy it might be!

Date:

Astronomy

Nov. 21, 2013 Rise Set
Actual Time 7:29 AM PST 4:24 PM PST
Civil Twilight 6:54 AM PST 5:00 PM PST
Nautical Twilight 6:15 AM PST 5:38 PM PST
Astronomical Twilight 5:38 AM PST 6:16 PM PST
Moon 8:10 PM PST (11/21) 10:37 AM PST (11/21)
Length of Visible Light 10h 05m
Length of Day
8h 55m
Waning Gibbous, 84% of the Moon is Illuminated
Nov 21
Waning Gibbous
Nov 25
Last Quarter
Dec 2
New
Dec 9
First Quarter
Dec 17
Full

Hourly Weather History & Observations

Time (PST) Temp. Windchill Dew Point Humidity Pressure Visibility Wind Dir Wind Speed Gust Speed Precip Events Conditions
12:15 AM 32.0 °F - 32.0 °F 100% 30.53 in 10.0 mi Calm Calm - N/A   Clear
12:35 AM 32.0 °F 28.7 °F 32.0 °F 100% 30.53 in 10.0 mi ENE 3.5 mph - N/A   Clear
12:55 AM 32.0 °F - 32.0 °F 100% 30.53 in 10.0 mi Calm Calm - N/A   Clear
1:15 AM 32.0 °F - 32.0 °F 100% 30.54 in 10.0 mi Calm Calm - N/A   Partly Cloudy
1:35 AM 32.0 °F - 32.0 °F 100% 30.54 in 10.0 mi Calm Calm - N/A   Partly Cloudy
1:55 AM 32.0 °F 25.6 °F 32.0 °F 100% 30.55 in 10.0 mi NE 6.9 mph - N/A   Clear
2:15 AM 32.0 °F - 32.0 °F 100% 30.55 in 10.0 mi Calm Calm - N/A   Clear
2:35 AM 32.0 °F 27.5 °F 32.0 °F 100% 30.55 in 10.0 mi NE 4.6 mph - N/A   Clear
2:55 AM 32.0 °F - 32.0 °F 100% 30.56 in 10.0 mi Calm Calm - N/A   Clear
3:15 AM 32.0 °F - 32.0 °F 100% 30.57 in 10.0 mi North - - N/A   Clear
3:35 AM 32.0 °F 28.7 °F 32.0 °F 100% 30.57 in 10.0 mi NE 3.5 mph - N/A   Clear
3:55 AM 32.0 °F - 32.0 °F 100% 30.57 in 10.0 mi Calm Calm - N/A   Clear
4:15 AM 32.0 °F 26.4 °F 32.0 °F 100% 30.58 in 10.0 mi ENE 5.8 mph - N/A   Clear
4:35 AM 32.0 °F 26.4 °F 32.0 °F 100% 30.58 in 10.0 mi ENE 5.8 mph - N/A   Clear
4:55 AM 32.0 °F 27.5 °F 32.0 °F 100% 30.59 in 10.0 mi ENE 4.6 mph - N/A   Clear
5:15 AM 32.0 °F 28.7 °F 32.0 °F 100% 30.59 in 10.0 mi ENE 3.5 mph - N/A   Clear
5:35 AM 32.0 °F 28.7 °F 32.0 °F 100% 30.59 in 10.0 mi NE 3.5 mph - N/A   Clear
5:55 AM 32.0 °F 26.4 °F 32.0 °F 100% 30.60 in 10.0 mi NE 5.8 mph - N/A   Clear
6:15 AM 32.0 °F - 32.0 °F 100% 30.60 in 10.0 mi Calm Calm - N/A   Clear
6:35 AM 32.0 °F 28.7 °F 32.0 °F 100% 30.61 in 10.0 mi NE 3.5 mph - N/A   Clear
6:55 AM 32.0 °F 26.4 °F 32.0 °F 100% 30.62 in 10.0 mi NE 5.8 mph - N/A   Clear
7:15 AM 32.0 °F 28.7 °F 32.0 °F 100% 30.62 in 10.0 mi ENE 3.5 mph - N/A   Clear
7:35 AM 32.0 °F - 32.0 °F 100% 30.62 in 10.0 mi Calm Calm - N/A   Clear
7:55 AM 32.0 °F 27.5 °F 32.0 °F 100% 30.62 in 10.0 mi ENE 4.6 mph - N/A   Clear
8:15 AM 32.0 °F 27.5 °F 32.0 °F 100% 30.63 in 10.0 mi ENE 4.6 mph - N/A   Clear
8:35 AM 32.0 °F - 32.0 °F 100% 30.63 in 10.0 mi Calm Calm - N/A   Clear
8:55 AM 32.0 °F - 32.0 °F 100% 30.64 in 10.0 mi Calm Calm - N/A   Clear
9:15 AM 33.8 °F - 33.8 °F 100% 30.65 in 10.0 mi Calm Calm - N/A   Clear
9:35 AM 35.6 °F 32.8 °F 35.6 °F 100% 30.65 in 10.0 mi ENE 3.5 mph - N/A   Clear
9:55 AM 35.6 °F - 35.6 °F 100% 30.65 in 10.0 mi Calm Calm - N/A   Clear
10:15 AM 35.6 °F - 35.6 °F 100% 30.66 in 10.0 mi Calm Calm - N/A   Clear
10:35 AM 35.6 °F - 35.6 °F 100% 30.66 in 10.0 mi Calm Calm - N/A   Clear
10:55 AM 37.4 °F - 37.4 °F 100% 30.67 in 10.0 mi Calm Calm - N/A   Clear
11:15 AM 37.4 °F 33.8 °F 37.4 °F 100% 30.66 in 10.0 mi NE 4.6 mph - N/A   Clear
11:35 AM 37.4 °F 33.8 °F 37.4 °F 100% 30.66 in 10.0 mi NE 4.6 mph - N/A   Clear
11:55 AM 37.4 °F 34.9 °F 37.4 °F 100% 30.66 in 10.0 mi North 3.5 mph - N/A   Clear
12:15 PM 37.4 °F - 37.4 °F 100% 30.66 in 10.0 mi Calm Calm - N/A   Clear
12:35 PM 37.4 °F - 37.4 °F 100% 30.65 in 10.0 mi Calm Calm - N/A   Clear
12:55 PM 37.4 °F - 37.4 °F 100% 30.65 in 10.0 mi Calm Calm - N/A   Clear
1:15 PM 39.2 °F 37.0 °F 39.2 °F 100% 30.65 in 10.0 mi North 3.5 mph - N/A   Clear
1:35 PM 39.2 °F - 39.2 °F 100% 30.65 in 10.0 mi Calm Calm - N/A   Clear
1:55 PM 39.2 °F 37.0 °F 39.2 °F 100% 30.65 in 10.0 mi ENE 3.5 mph - N/A   Clear
2:15 PM 39.2 °F 37.0 °F 39.2 °F 100% 30.65 in 10.0 mi NNE 3.5 mph - N/A   Clear
2:35 PM 39.2 °F 35.9 °F 39.2 °F 100% 30.65 in 10.0 mi NE 4.6 mph - N/A   Clear
2:55 PM 39.2 °F - 39.2 °F 100% 30.65 in 10.0 mi Calm Calm - N/A   Clear
3:15 PM 39.2 °F 37.0 °F 39.2 °F 100% 30.65 in 10.0 mi NNE 3.5 mph - N/A   Clear
3:35 PM 39.2 °F - 39.2 °F 100% 30.65 in 10.0 mi Calm Calm - N/A   Clear
3:55 PM 37.4 °F - 37.4 °F 100% 30.65 in 10.0 mi Calm Calm - N/A   Clear
4:15 PM 37.4 °F - 37.4 °F 100% 30.65 in 10.0 mi Calm Calm - N/A   Clear
4:35 PM 35.6 °F - 35.6 °F 100% 30.66 in 9.0 mi Calm Calm - N/A   Clear
4:55 PM 35.6 °F - 35.6 °F 100% 30.66 in 10.0 mi Calm Calm - N/A   Clear
5:15 PM 33.8 °F - 33.8 °F 100% 30.67 in 10.0 mi Calm Calm - N/A   Clear
5:35 PM 32.0 °F - 32.0 °F 100% 30.67 in 10.0 mi Calm Calm - N/A   Clear
5:55 PM 32.0 °F - 32.0 °F 100% 30.68 in 10.0 mi Calm Calm - N/A   Clear
6:15 PM 32.0 °F - 32.0 °F 100% 30.67 in 10.0 mi Calm Calm - N/A   Clear
6:35 PM 32.0 °F - 32.0 °F 100% 30.66 in 10.0 mi Calm Calm - N/A   Clear
6:55 PM 32.0 °F - 32.0 °F 100% 30.66 in 10.0 mi Calm Calm - N/A   Clear
7:15 PM 32.0 °F - 32.0 °F 100% 30.65 in 8.0 mi Calm Calm - N/A   Clear
7:35 PM 32.0 °F - 32.0 °F 100% 30.65 in 8.0 mi Calm Calm - N/A   Clear
7:55 PM 32.0 °F - 32.0 °F 100% 30.65 in 9.0 mi Calm Calm - N/A   Clear
8:15 PM 32.0 °F - 32.0 °F 100% 30.66 in 8.0 mi Calm Calm - N/A   Clear
8:35 PM 32.0 °F - 32.0 °F 100% 30.66 in 10.0 mi Calm Calm - N/A   Clear
8:55 PM 30.2 °F - 30.2 °F 100% 30.66 in 10.0 mi Calm Calm - N/A   Clear
9:15 PM 35.6 °F 32.8 °F 35.6 °F 100% 30.67 in 9.0 mi ENE 3.5 mph - N/A   Clear
9:35 PM 35.6 °F 31.7 °F 35.6 °F 100% 30.67 in 8.0 mi NE 4.6 mph - N/A   Clear
9:55 PM 35.6 °F 30.7 °F 35.6 °F 100% 30.66 in 10.0 mi NNE 5.8 mph - N/A   Clear
10:15 PM 37.4 °F - 37.4 °F 100% 30.66 in 10.0 mi Calm Calm - N/A   Clear
10:35 PM 35.6 °F 31.7 °F 35.6 °F 100% 30.66 in 10.0 mi NE 4.6 mph - N/A   Clear
10:55 PM 35.6 °F - 35.6 °F 100% 30.67 in 10.0 mi Calm Calm - N/A   Clear
11:15 PM 35.6 °F 32.8 °F 35.6 °F 100% 30.67 in 10.0 mi NE 3.5 mph - N/A   Clear
11:35 PM 35.6 °F 32.8 °F 35.6 °F 100% 30.68 in 10.0 mi East 3.5 mph - N/A   Clear
11:55 PM 35.6 °F 30.7 °F 35.6 °F 100% 30.68 in 10.0 mi NE 5.8 mph - N/A   Clear